www.pogodaiklimat.ru

Погода и климат >> Архив погоды >> Австрия >> Бад-Аусзе


ПОГОДА в Бад-Аусзе

  • Прогноз погоды в Бад-Аусзе
  • Монитор погоды в Бад-Аусзе

АРХИВ ПОГОДЫ в Бад-Аусзе

Время (UTC), дата Ветер
(напр.,м/с)
 
Видим.   Явления Облачность Т
(С)
Тd
(С)
f
(%)
Тe
(С)
Тes
(С)
Комфортность P
(гПа)
Po
(гПа)
Тmin
(С)
Tmax
(С)
R
(мм)
R24
(мм)
S
(см)
01 9.06 С 1 н/о н/о +9.7 +8.3 91 +9 +9 1026.5 939.6
02 9.06 штиль 0 н/о н/о +9.3 +7.9 91 +8 +8 1026.3 939.3 0.0
03 9.06 штиль 0 н/о н/о +8.4 +7.7 95 +7 +7 1026.4 939.1 0.0
04 9.06 штиль 0 н/о н/о +8.0 +7.3 95 +7 +7 1026.5 939.0
05 9.06 СВ 1 н/о н/о +11.1 +8.9 86 +11 +11 1025.2 938.8
06 9.06 СВ 2 н/о н/о +13.6 +9.5 76 +13 +13 1024.1 938.5 +7.7 +17.0 0.0
07 9.06 СВ 2 н/о н/о +16.0 +9.9 67 +16 +16 1022.7 937.9
08 9.06 С 2 н/о н/о +19.5 +11.8 61 +21 +21 комфорт 1020.5 936.9
09 9.06 В 1 н/о н/о +22.0 +10.8 49 +24 +24 комфорт 1019.7 936.8
10 9.06 ЮВ 2 н/о н/о +23.4 +10.5 44 +25 +25 комфорт 1019.2 936.7
11 9.06 ЮВ 1 н/о н/о +24.6 +11.2 43 +26 +26 жарко 1018.3 936.2
12 9.06 С 1 н/о н/о +25.4 +11.2 41 +27 +27 жарко 1017.1 935.3
13 9.06 СВ 1 н/о н/о +26.2 +11.1 39 +27 +27 жарко 1016.0 934.5
14 9.06 В 1 н/о н/о +26.8 +10.5 36 +28 +28 жарко 1015.4 934.1
15 9.06 В 1 н/о н/о +27.4 +11.0 36 +28 +28 жарко 1014.3 933.3
16 9.06 СВ 2 н/о н/о +27.5 +10.2 34 +28 +28 жарко 1013.7 932.7
17 9.06 штиль 0 н/о н/о +26.4 +11.7 40 +28 +28 жарко 1013.7 932.5
18 9.06 ЮЗ 1 н/о н/о +23.8 +12.4 49 +26 +26 жарко 1014.6 932.7 +13.2 +28.4
19 9.06 СЗ 1 н/о н/о +21.8 +12.6 56 +24 +24 комфорт 1015.9 933.3
20 9.06 Ю 1 н/о н/о +20.4 +13.1 63 +24 +24 комфорт 1016.5 933.5 0.0
21 9.06 штиль 0 н/о н/о +18.2 +13.7 75 +18 +18 1017.1 933.5 0.0
22 9.06 С 1 н/о н/о +16.1 +13.7 86 +17 +17 1017.9 933.7 0.0
23 9.06 ЮЗ 1 н/о н/о +16.2 +13.6 85 +17 +17 1018.4 934.1 0.0
00 10.06 штиль 0 н/о н/о +15.6 +13.6 88 +15 +15 1018.4 934.0 0.0
01 10.06 С 1 н/о н/о +14.8 +13.1 90 +15 +15 1017.9 933.3
02 10.06 СЗ 1 н/о н/о +14.1 +13.0 93 +14 +14 1017.2 932.4
03 10.06 СВ 2 н/о н/о +15.2 +12.3 83 +15 +15 1016.5 932.1
04 10.06 С 2 н/о н/о +16.8 +12.1 74 +17 +17 1015.8 931.9
05 10.06 СВ 2 н/о н/о +18.2 +12.6 70 +19 +19 1014.9 931.4
06 10.06 СВ 2 н/о н/о +19.5 +13.4 68 +22 +22 комфорт 1014.3 931.3 +13.7 +24.2 0.0
07 10.06 С 2 н/о н/о +21.4 +13.3 60 +24 +24 комфорт 1013.5 931.0
08 10.06 ЮВ 2 н/о н/о +24.0 +13.8 53 +26 +26 жарко 1012.5 930.8
09 10.06 В 1 н/о н/о +25.7 +13.5 47 +28 +28 жарко 1011.5 930.3
10 10.06 ЮЗ 1 н/о н/о +24.6 +15.0 55 +27 +27 жарко 1011.5 930.1
11 10.06 штиль 0 н/о н/о +24.1 +14.5 55 +27 +27 жарко 1011.7 930.1
12 10.06 В 1 н/о н/о +24.4 +13.6 51 +27 +27 жарко 1010.5 929.1
13 10.06 СЗ 1 н/о н/о +24.7 +14.8 54 +27 +27 жарко 1009.4 928.2
14 10.06 ЮЗ 1 н/о н/о +24.5 +15.7 58 +28 +28 душно 1008.0 926.9
15 10.06 Ю 1 н/о н/о +28.9 +12.7 37 +30 +30 жарко 1005.8 925.9
16 10.06 ЮЗ 1 н/о н/о +29.1 +12.1 35 +30 +30 жарко 1005.7 925.8
17 10.06 штиль 0 н/о н/о +28.0 +10.2 33 +28 +28 жарко 1006.2 926.0
18 10.06 Ю 3 н/о н/о +27.1 +9.9 34 +28 +28 жарко 1006.7 926.2 +19.3 +29.8
19 10.06 ЮВ 1 н/о н/о +24.0 +10.3 42 +25 +25 комфорт 1007.9 926.5
20 10.06 С 1 н/о н/о +22.3 +11.4 50 +24 +24 комфорт 1009.0 927.1
21 10.06 В 1 н/о н/о +21.0 +12.1 57 +24 +24 комфорт 1009.0 926.8
22 10.06 В 1 н/о н/о +20.7 +12.1 58 +24 +24 комфорт 1009.3 927.0
23 10.06 В 4 н/о н/о +23.9 +12.8 50 +26 +26 жарко 1007.9 926.5
00 11.06 ЮВ 3 н/о н/о +23.4 +12.7 51 +26 +26 жарко 1007.3 925.9
01 11.06 ЮВ 2 н/о н/о +22.3 +12.2 53 +25 +25 комфорт 1007.6 925.8
02 11.06 ЮВ 3 н/о н/о +22.1 +12.6 55 +25 +25 комфорт 1007.6 925.8
03 11.06 ЮВ 4 н/о н/о +21.6 +13.0 58 +24 +24 комфорт 1007.5 925.6
04 11.06 ЮВ 4 н/о н/о +21.5 +12.9 58 +24 +24 комфорт 1007.8 925.8
05 11.06 ЮВ 3 н/о н/о +21.4 +13.3 60 +24 +24 комфорт 1007.9 925.9
06 11.06 СВ 3 н/о н/о +20.7 +13.6 64 +24 +24 комфорт 1009.0 926.7 +19.9 +27.4
07 11.06 СЗ 1 н/о н/о +18.4 +13.9 75 +20 +20 1010.3 927.3
08 11.06 штиль 0 н/о н/о +19.1 +14.3 74 +20 +20 1009.5 926.8
09 11.06 штиль 0 н/о н/о +20.1 +14.9 72 +22 +22 комфорт 1008.2 925.9
10 11.06 ЮЗ 1 н/о н/о +23.4 +16.7 66 +28 +28 душно 1006.1 924.9
11 11.06 ЮВ 4 н/о н/о +28.8 +13.0 38 +30 +30 жарко 1004.0 924.2
12 11.06 ЮВ 1
{14}
н/о н/о +29.6 +12.5 35 +31 +31 жарко 1004.1 924.5 0.0
13 11.06 Ю 3 н/о н/о +27.0 +11.1 37 +28 +28 жарко 1005.5 925.1 0.0
14 11.06 ЮВ 3 н/о н/о +26.2 +11.5 40 +27 +27 жарко 1005.3 924.7 0.0
15 11.06 ЮВ 4 н/о н/о +29.9 +14.0 38 +32 +32 жарко 1003.7 924.2 0.0
16 11.06 ЮВ 5 н/о н/о +28.8 +13.4 39 +30 +30 жарко 1004.7 924.9
17 11.06 ЮВ 3 н/о н/о +26.3 +13.4 45 +28 +28 жарко 1006.2 925.6 0.0
18 11.06 ЮВ 7
{14}
н/о н/о +25.9 +10.9 39 +27 +27 жарко 1007.3 926.5 +18.4 +30.2 0.0
19 11.06 ЮВ 2 н/о в посл. час осадки н/о +21.3 +9.9 48 +23 +23 комфорт 1009.2 927.0 0.0
20 11.06 ЮВ 3 н/о н/о +22.8 +9.9 44 +25 +25 комфорт 1010.4 928.5
21 11.06 В 5
{14}
н/о осадки н/о +20.6 +10.1 51 +22 +22 комфорт 1010.4 927.9 0.0
22 11.06 ЮВ 4
{14}
н/о н/о +21.1 +10.3 50 +23 +23 комфорт 1010.0 927.7 0.0
23 11.06 ЮВ 4 н/о н/о +21.2 +9.8 48 +23 +23 комфорт 1009.4 927.1
00 12.06 ЮВ 3
{14}
н/о {ливн. осадки} н/о +20.7 +9.6 49 +23 +23 комфорт 1009.4 927.0 0.0
01 12.06 ЮВ 2 н/о н/о +20.1 +9.4 50 +22 +22 комфорт 1008.8 926.3 0.0
02 12.06 ЮВ 2 н/о н/о +19.2 +9.4 53 +21 +21 комфорт 1008.7 925.9
03 12.06 В 1 н/о н/о +19.3 +9.8 54 +21 +21 комфорт 1008.4 925.7 0.0
04 12.06 ЮВ 2 н/о н/о +19.0 +9.8 55 +20 +20 1008.3 925.5
05 12.06 ЮВ 4 н/о н/о +20.9 +11.0 53 +23 +23 комфорт 1007.4 925.2
06 12.06 ЮВ 5
{14}
н/о н/о +23.1 +12.1 50 +26 +26 жарко 1006.6 925.1 +18.4 +26.1 0.0
07 12.06 ЮВ 4 н/о н/о +25.5 +14.0 49 +28 +28 жарко 1005.6 924.9
08 12.06 ЮВ 4 н/о н/о +26.3 +14.1 47 +29 +29 жарко 1005.2 924.7
09 12.06 ЮВ 3 н/о н/о +25.6 +13.7 48 +28 +28 жарко 1005.3 924.6
10 12.06 ЮВ 5 н/о н/о +26.9 +13.9 45 +29 +29 жарко 1004.9 924.6
11 12.06 Ю 3 н/о н/о +28.4 +15.7 46 +31 +31 душно 1004.4 924.6
12 12.06 ЮВ 3 н/о н/о +29.5 +15.3 42 +32 +32 душно 1003.9 924.4
13 12.06 ЮВ 3 н/о н/о +27.8 +13.3 41 +30 +30 жарко 1004.9 924.8 0.0
14 12.06 Ю 1 н/о н/о +28.9 +13.5 39 +31 +31 жарко 1004.7 924.9
15 12.06 ЮВ 2 н/о н/о +27.6 +14.6 45 +30 +30 жарко 1005.2 925.1 0.0
16 12.06 ЮВ 4 н/о н/о +27.7 +14.3 44 +30 +30 жарко 1005.2 925.1
17 12.06 Ю 3 н/о н/о +26.9 +13.9 45 +29 +29 жарко 1005.6 925.2 0.0
18 12.06 СЗ 1 н/о н/о +21.8 +14.2 62 +25 +25 комфорт 1007.4 925.6 +21.8 +29.8 0.0
19 12.06 СЗ 2 н/о н/о +19.6 +14.6 73 +22 +22 комфорт 1009.0 926.5
20 12.06 СЗ 2 н/о н/о +18.1 +14.5 79 +19 +19 1010.7 927.6
21 12.06 СЗ 1 н/о н/о +17.2 +14.4 84 +18 +18 1011.4 928.0
22 12.06 СЗ 1 н/о н/о +16.4 +14.4 88 +17 +17 1012.3 928.6
23 12.06 СЗ 1 н/о н/о +15.8 +13.8 88 +16 +16 1012.6 928.7
00 13.06 штиль 0 н/о н/о +16.2 +14.2 88 +16 +16 1012.3 928.6
01 13.06 ЮЗ 1 н/о н/о +16.1 +13.9 87 +17 +17 1012.5 928.7
02 13.06 штиль 0 н/о н/о +15.9 +13.9 88 +16 +16 1012.4 928.6
03 13.06 штиль 0 н/о н/о +15.5 +13.8 90 +15 +15 1012.7 928.7
04 13.06 штиль 0 н/о н/о +15.7 +13.7 88 +15 +15 1013.2 929.2
05 13.06 штиль 0 н/о н/о +15.5 +13.5 88 +15 +15 1013.8 929.7
06 13.06 штиль 0 н/о н/о +15.9 +13.9 88 +16 +16 1014.2 930.2 +15.4 +22.4
07 13.06 ЮЗ 1 н/о н/о +16.4 +13.7 84 +17 +17 1013.9 930.1
08 13.06 ЮВ 1 н/о н/о +18.5 +13.9 75 +20 +20 1013.1 929.9
09 13.06 Ю 1 н/о н/о +19.9 +14.4 71 +23 +23 комфорт 1012.0 929.3
10 13.06 Ю 1 н/о н/о +21.9 +14.8 64 +25 +25 комфорт 1010.5 928.5
11 13.06 штиль 0 н/о н/о +23.9 +14.9 57 +27 +27 жарко 1009.5 928.1
12 13.06 ЮЗ 1 н/о н/о +25.6 +15.4 53 +29 +29 душно 1008.4 927.5
13 13.06 ЮЗ 1 н/о н/о +27.4 +16.1 50 +31 +31 душно 1007.3 927.0
14 13.06 ЮЗ 1 н/о н/о +27.8 +15.8 48 +31 +31 душно 1007.0 926.8
15 13.06 З 1 н/о н/о +27.9 +15.6 47 +31 +31 душно 1007.2 927.0
16 13.06 З 1 н/о н/о +25.9 +15.6 53 +29 +29 душно 1008.3 927.5
17 13.06 СЗ 2 н/о н/о +24.8 +15.8 57 +28 +28 жарко 1009.0 927.9
18 13.06 СЗ 2 н/о н/о +23.3 +15.4 61 +28 +28 душно 1010.2 928.6 +15.8 +28.9
19 13.06 СЗ 2 н/о н/о +21.5 +15.4 68 +25 +25 комфорт 1011.8 929.6
20 13.06 З 1 н/о н/о +20.6 +15.0 70 +25 +25 комфорт 1013.4 930.8
21 13.06 СЗ 1 н/о н/о +19.9 +15.0 73 +23 +23 комфорт 1014.5 931.6
22 13.06 СЗ 1 н/о н/о +20.2 +14.5 70 +24 +24 комфорт 1015.4 932.5
23 13.06 СЗ 1 н/о н/о +19.4 +14.4 73 +22 +22 комфорт 1016.1 932.9
00 14.06 СВ 1 н/о н/о +17.9 +14.0 78 +19 +19 1016.9 933.2
01 14.06 СВ 1 н/о н/о +16.5 +14.5 88 +17 +17 1017.5 933.4
02 14.06 штиль 0 н/о н/о +14.9 +13.6 92 +15 +15 1018.1 933.5
03 14.06 штиль 0 н/о н/о +13.6 +12.9 96 +13 +13 1019.1 934.0
04 14.06 В 1 н/о н/о +13.3 +12.8 97 +13 +13 1019.6 934.4
05 14.06 С 1 н/о н/о +15.4 +13.6 89 +16 +16 1019.0 934.5
06 14.06 С 1 н/о н/о +17.7 +13.8 78 +19 +19 1018.7 934.8 +12.8 +23.4
07 14.06 В 2 н/о н/о +20.6 +14.2 67 +24 +24 комфорт 1017.4 934.4
08 14.06 В 2 н/о н/о +23.1 +14.3 58 +27 +27 душно 1016.0 933.8
09 14.06 ЮВ 3 н/о н/о +25.8 +13.6 47 +28 +28 жарко 1015.0 933.6
10 14.06 ЮВ 4 н/о н/о +27.8 +11.4 36 +29 +29 жарко 1014.2 933.3
11 14.06 ЮВ 3 н/о н/о +29.7 +12.1 34 +31 +31 жарко 1013.0 932.7
12 14.06 В 2 н/о н/о +30.5 +12.8 34 +32 +32 жарко 1012.1 932.1
13 14.06 В 1 н/о н/о +32.1 +11.8 29 +32 +32 жарко 1010.8 931.3
14 14.06 В 1 н/о н/о +32.9 +11.4 27 +33 +33 жарко 1010.1 930.8
15 14.06 Ю 1 н/о н/о +34.1 +10.0 23 +33 +33 жарко 1009.3 930.3
16 14.06 ЮВ 2 н/о н/о +33.9 +9.9 23 +33 +33 жарко 1009.0 930.0
17 14.06 Ю 2 н/о н/о +32.8 +9.6 24 +32 +32 жарко 1009.3 930.0
18 14.06 ЮВ 3 н/о н/о +31.1 +8.2 24 +30 +30 жарко 1009.9 930.1 +17.2 +34.7
19 14.06 ЮВ 3 н/о н/о +28.2 +7.5 27 +28 +28 жарко 1010.8 930.2
20 14.06 ЮВ 1 н/о н/о +24.4 +7.6 34 +25 +25 комфорт 1012.2 930.5
21 14.06 ЮВ 1 н/о н/о +24.1 +8.5 37 +25 +25 комфорт 1012.6 930.8
22 14.06 ЮВ 1 н/о н/о +24.6 +9.4 38 +25 +25 комфорт 1012.5 930.9
23 14.06 ЮВ 3 н/о н/о +25.3 +9.6 37 +26 +26 жарко 1012.2 930.8
00 15.06 В 2 н/о н/о +24.7 +10.2 40 +26 +26 жарко 1011.6 930.1
01 15.06 Ю 2 н/о н/о +24.4 +9.9 40 +25 +25 комфорт 1011.9 930.3
02 15.06 ЮВ 3 н/о н/о +24.7 +9.8 39 +26 +26 жарко 1011.2 929.7
03 15.06 С 1 н/о н/о +22.5 +9.3 43 +24 +24 комфорт 1011.6 929.5
04 15.06 СВ 1 н/о н/о +22.2 +9.4 44 +24 +24 комфорт 1011.9 929.7
05 15.06 С 1 н/о н/о +21.5 +9.4 46 +23 +23 комфорт 1011.9 929.5
06 15.06 С 1 н/о н/о +21.9 +10.1 47 +24 +24 комфорт 1012.0 929.7 +21.0 +31.4
07 15.06 СВ 2 н/о н/о +22.0 +10.5 48 +24 +24 комфорт 1012.0 929.7
08 15.06 В 1 н/о н/о +23.3 +11.7 48 +26 +26 жарко 1011.8 929.9
09 15.06 З 1 н/о н/о +22.3 +12.8 55 +25 +25 комфорт 1012.0 929.9
10 15.06 штиль 0 н/о н/о +24.6 +15.0 55 +27 +27 жарко 1011.2 929.8
11 15.06 ЮВ 2 н/о н/о +28.5 +15.1 44 +31 +31 душно 1009.8 929.5
12 15.06 ЮВ 3 н/о н/о +29.6 +15.4 42 +32 +32 душно 1008.7 928.8
13 15.06 З 1 н/о н/о +28.8 +14.2 41 +31 +31 жарко 1008.2 928.1
14 15.06 З 2 н/о н/о +25.4 +14.5 51 +28 +28 жарко 1009.9 928.8
15 15.06 ЮЗ 1 н/о н/о +24.0 +15.0 57 +27 +27 жарко 1010.8 929.3 0.0
16 15.06 З 1 н/о н/о +23.4 +16.2 64 +28 +28 душно 1011.3 929.6 0.0
17 15.06 З 1 н/о ливневой дождь н/о +20.9 +17.9 83 +26 +26 душно 1012.4 930.1 4
18 15.06 ЮЗ 1 н/о в посл. час осадки {ливн. осадки} н/о +18.9 +17.9 94 +21 +21 комфорт 1013.5 930.5 +18.7 +30.4 7
19 15.06 З 1 н/о н/о +18.8 +15.7 82 +21 +21 комфорт 1013.9 930.8
20 15.06 СЗ 1 н/о н/о +17.6 +15.6 88 +19 +19 1014.8 931.3
21 15.06 В 1 н/о н/о +16.8 +15.5 92 +18 +18 1014.5 930.8
22 15.06 С 1 н/о н/о +16.3 +14.9 91 +17 +17 1014.1 930.3
23 15.06 СЗ 1 н/о н/о +15.4 +15.0 97 +16 +16 1014.6 930.5
00 16.06 штиль 0 н/о н/о +14.7 +14.5 99 +14 +14 1015.3 930.9

 

Местоположение метеостанции Бад-Аусзе (Австрия): широта 47.62 долгота 13.78 высота над уровнем моря 664 м.

В архиве по умолчанию представлена погода в Бад-Аусзе за последнюю неделю. Архивные данные за месяц целиком и за предыдущие месяцы, начиная с января 2011 года, Вы можете получить, выбрав интересующий диапазон дат из раскрывающегося списка и нажав кнопку "Ввод!".


*Определитесь, кто Вы:
робот инопланетянин человек

Внимание! Время в таблицах - всемирное. Для получения местного времени необходимо прибавить поправку, которая равна 1 ч.

Смотрите также архив погоды в соседних городах и на ближайших метеорологических станциях:

Погода в Бад-Гойзерне (Австрия) (12 км)
Погода в Бад-Миттерндорфе (Австрия) (14 км)
Погода в Грёбминге (Австрия) (21 км)
Погода в Фойеркогеле (Австрия) (23 км)
Погода в Рамзау (Австрия) (24 км)
Погода в Санкт-Вольфганге (Австрия) (28 км)
Погода в Айген-им-Энсталь (Австрия) (28 км)
Погода в Гмундене (Австрия) (31 км)
Погода в Радштадте (Австрия) (36 км)
Погода в Радштадте (Австрия) (37 км)

Пояснения к столбцам:

Ветер - указаны скорость ветра в м/с - средняя за 10 мин, порывы в срок и между сроками (в фигурных скобках) и направление, откуда дует ветер: С - северный, СВ - северо-восточный, В - восточный, ЮВ - юго-восточный, Ю - южный, ЮЗ - юго-западный, З - западный, СЗ - северо-западный.
Видимость - горизонтальная дальность видимости в метрах или километрах. При видимости от 1 до 10 км при отсутствии осадков обычно наблюдается дымка, при ухудшении видимости до 1 км и менее - туман. В сухую погоду видимость может ухудшаться дымом, пылью или мглою.
Явления - указаны атмосферные явления, наблюдавшиеся в срок или в последний час перед сроком; фигурными скобками обозначены явления, наблюдавшиеся между сроками (за 1-3 часа до срока); квадратными скобками обозначены град или гололедные отложения с указанием их диаметра в мм.
Облачность - указаны через наклонную черту общая и нижняя облачность в баллах и высота нижней границы облаков в метрах; квадратными скобками обозначены формы облаков: Ci - перистые, Cs - перисто-слоистые, Cc - перисто-кучевые, Ac - высококучевые, As - высокослоистые, Sc - слоисто-кучевые, Ns - слоисто-дождевые, Cu - кучевые, Cb - кучево-дождевые. Подробнее классификацию облаков см. в Атласе облаков (PDF).
T - Температура воздуха - температура, измеренная на высоте 2 м над землей.
Td - Температура точки росы - температура, при понижении до которой содержащийся в воздухе водяной пар достигнет насыщения.
f - Относительная влажность воздуха - влажноcть воздуха, измеренная на высоте 2 м над землей.
Te - Эффективная температура - температура, которую ощущает одетый по сезону человек в тени. Характеристика душности погоды. При расчете учитывается влияние влажности воздуха и скорости ветра на теплоощущения человека.
Tes - Эффективная температура на солнце - температура, которую ощущает человек, с поправкой на солнечный нагрев. Характеристика знойности погоды. Зависит от высоты солнца над горизонтом, облачности и скорости ветра. Ночью, в пасмурную погоду, а также при ветре 12 м/с и более поправка равна нулю.
P - Атмосферное давление - приведенное к уровню моря атмосферное давление.
Po - Атмосферное давление - измеренное на уровне метеостанции атмосферное давление.
Tmin - Минимальная температура - минимум температуры воздуха на высоте 2 м над землей.
Tmax - Максимальная температура - максимум температуры воздуха на высоте 2 м над землей.
R - Количество осадков - Количество выпавших осадков за период времени, мм. При наведении курсора мыши на число - период времени, за который выпало указанное количество осадков.
R24 - Количество осадков - Количество выпавших осадков за 24 часа, мм.
S - Снежный покров - Высота снежного покрова, см. При наведении курсора мыши на число - состояние снежного покрова и степень покрытия местности в баллах.